Englewood, Florida, United States (34223)
Lat: 26.96N, Lon: 82.35W
Wx Zone: FLZ060
Local Info
Past Weather Observations for Thursday, February 26, 2015

NOTE: This archive is for the closest National Weather Service station to Englewood. Information may differ from the station used for current weather conditions.

Click here for Long-term Archive

Time Weather Temperature Dewpoint Humidity Pressure Winds Precip Visibility
23:53
Overcast
59°F / 15°C 54°F / 12°C 82% 30.06 in
(1018 mb)
N 8.1 mph
(N 13 kph)
- 10SM
22:53
Overcast
59°F / 15°C 55°F / 13°C 88% 30.06 in
(1018 mb)
NNW 11.5 mph
(NNW 19 kph)
- 10SM
21:53
Overcast
61°F / 16°C 55°F / 13°C 83% 30.06 in
(1018 mb)
N 9.2 mph
(N 15 kph)
- 10SM
20:53
Overcast
63°F / 17°C 57°F / 14°C 83% 30.04 in
(1017 mb)
N 8.1 mph
(N 13 kph)
- 10SM
19:53
Overcast
63°F / 17°C 61°F / 16°C 94% 30.01 in
(1016 mb)
N 9.2 mph
(N 15 kph)
- 10SM
18:53
Overcast
64°F / 18°C 63°F / 17°C 94% 29.98 in
(1015 mb)
NNW 5.8 mph
(NNW 9 kph)
- 10SM
17:53
Overcast
64°F / 18°C 63°F / 17°C 94% 29.95 in
(1014 mb)
WNW 3.5 mph
(WNW 6 kph)
0.00 in
(0.00 mm)
10SM
16:53
Overcast
Light Rain
64°F / 18°C 63°F / 17°C 94% 29.95 in
(1014 mb)
NNW 3.5 mph
(NNW 6 kph)
0.00 in
(0.00 mm)
9SM
16:11
Overcast
64°F / 18°C 63°F / 17°C 94% 29.92 in
(1013 mb)
N 4.6 mph
(N 7 kph)
0.00 in
(0.00 mm)
10SM
15:53
Overcast
Light Rain
64°F / 18°C 63°F / 17°C 94% 29.92 in
(1013 mb)
NNW 8.1 mph
(NNW 13 kph)
0.00 in
(0.00 mm)
7SM
14:53
Overcast
66°F / 19°C 63°F / 17°C 88% 29.92 in
(1013 mb)
NNW 4.6 mph
(NNW 7 kph)
0.02 in
(0.51 mm)
7SM
14:38
Overcast
Light Rain
64°F / 18°C 63°F / 17°C 94% 29.92 in
(1013 mb)
N 3.5 mph
(N 6 kph)
0.02 in
(0.51 mm)
5SM
14:28
Overcast
Light Rain
66°F / 19°C 64°F / 18°C 94% 29.92 in
(1013 mb)
N 4.6 mph
(N 7 kph)
0.02 in
(0.51 mm)
2SM
14:22
Overcast
Light Rain
66°F / 19°C 64°F / 18°C 94% 29.92 in
(1013 mb)
NW 5.8 mph
(NW 9 kph)
0.01 in
(0.25 mm)
3SM
14:15
Overcast
Light Rain
66°F / 19°C 64°F / 18°C 94% 29.92 in
(1013 mb)
NW 5.8 mph
(NW 9 kph)
0.00 in
(0.00 mm)
3SM
13:53
Overcast
Fog And Mist
66°F / 19°C 64°F / 18°C 94% 29.92 in
(1013 mb)
NNW 4.6 mph
(NNW 7 kph)
0.02 in
(0.51 mm)
4SM
13:20
Overcast
Fog And Mist
66°F / 19°C 66°F / 19°C 100% 29.92 in
(1013 mb)
Variable 4.6 mph
(Variable 7 kph)
0.02 in
(0.51 mm)
2SM
12:53
Overcast
Rain
66°F / 19°C 64°F / 18°C 94% 29.92 in
(1013 mb)
W 5.8 mph
(W 9 kph)
0.07 in
(1.78 mm)
2SM
12:36
Overcast
Rain
66°F / 19°C 64°F / 18°C 94% 29.92 in
(1013 mb)
N 3.5 mph
(N 6 kph)
0.04 in
(1.02 mm)
2SM
12:01
Overcast
68°F / 20°C 64°F / 18°C 88% 29.92 in
(1013 mb)
Calm - 10SM
11:53
Overcast
68°F / 20°C 64°F / 18°C 88% 29.92 in
(1013 mb)
Calm 0.00 in
(0.00 mm)
10SM
11:44
Overcast
68°F / 20°C 64°F / 18°C 88% 29.92 in
(1013 mb)
Calm 0.00 in
(0.00 mm)
9SM
10:53
Overcast
66°F / 19°C 64°F / 18°C 94% 29.92 in
(1013 mb)
N 4.6 mph
(N 7 kph)
0.01 in
(0.25 mm)
9SM
10:37
Overcast
Fog And Mist
66°F / 19°C 64°F / 18°C 94% 29.92 in
(1013 mb)
N 5.8 mph
(N 9 kph)
0.01 in
(0.25 mm)
5SM
10:14
Overcast
Light Rain
66°F / 19°C 64°F / 18°C 94% 29.92 in
(1013 mb)
NNW 8.1 mph
(NNW 13 kph)
0.01 in
(0.25 mm)
8SM
09:53
Overcast
Light Rain
66°F / 19°C 64°F / 18°C 94% 29.89 in
(1012 mb)
NNW 10.4 mph
(NNW 17 kph)
0.01 in
(0.25 mm)
2SM
08:53
Overcast
Light Rain
70°F / 21°C 70°F / 21°C 100% 29.89 in
(1012 mb)
W 5.8 mph
(W 9 kph)
0.02 in
(0.51 mm)
5SM
07:53
Overcast
Light Rain
70°F / 21°C 68°F / 20°C 94% 29.83 in
(1010 mb)
SSW 12.7 mph
(SSW 20 kph)
0.00 in
(0.00 mm)
5SM
07:51
Overcast
Light Rain
70°F / 21°C 68°F / 20°C 94% 29.83 in
(1010 mb)
W 12.7 mph
(W 20 kph)
0.00 in
(0.00 mm)
6SM
07:23
Mostly Cloudy
70°F / 21°C 68°F / 20°C 94% 29.83 in
(1010 mb)
SW 18.4 mph
(SW 30 kph)
- 7SM
06:53
Overcast
70°F / 21°C 68°F / 20°C 94% 29.83 in
(1010 mb)
SW 15 mph
(SW 24 kph)
- 8SM
06:27
Overcast
72°F / 22°C 70°F / 21°C 94% 29.83 in
(1010 mb)
SW 15 mph
(SW 24 kph)
- 9SM
05:53
Mostly Cloudy
72°F / 22°C 70°F / 21°C 94% 29.8 in
(1009 mb)
SW 13.8 mph
(SW 22 kph)
- 10SM
04:53
Partly Cloudy
72°F / 22°C 70°F / 21°C 94% 29.77 in
(1008 mb)
SW 24.2 mph
(SW 39 kph)
- 10SM
03:53
Clear
72°F / 22°C 70°F / 21°C 94% 29.77 in
(1008 mb)
SW 23 mph
(SW 37 kph)
- 10SM
01:41
Mostly Cloudy
72°F / 22°C 70°F / 21°C 94% 29.8 in
(1009 mb)
SW 20.7 mph
(SW 33 kph)
- 10SM
00:53
Overcast
72°F / 22°C 70°F / 21°C 94% 29.8 in
(1009 mb)
S 20.7 mph
(S 33 kph)
- 10SM
00:25
Mostly Cloudy
72°F / 22°C 70°F / 21°C 94% 29.8 in
(1009 mb)
SSE 17.3 mph
(SSE 28 kph)
- 10SM
Time Weather Temperature Dewpoint Humidity Pressure Winds Precip Visibility


Weather for websites

WeatherForYou.com, LLC is not responsible for any damages or problems caused by this service. Current weather conditions are obtained from the closest station including government and personal stations which may have varying degrees of accuracy. Weather forecasts are derived from the NOAA NDFD. Like all things, this site belongs to Jesus Christ... He just trusts me to maintain it. If you have any questions or comments email webmaster@weatherforyou.com

Copyright © 2015, WeatherForYou.com LLC. All rights reserved.